TimePST,TemperatureF,Dew PointF,Humidity,Sea Level PressureIn,VisibilityMPH,Wind Direction,Wind SpeedMPH,Gust SpeedMPH,PrecipitationIn,Events,Conditions,WindDirDegrees,DateUTC
12:53 AM,32.0,30.9,96,30.00,6.0,Calm,Calm,-,N/A,,Mostly Cloudy,0,2013-01-10 08:53:00
1:23 AM,33.8,30.2,87,30.00,7.0,Calm,Calm,-,0.00,Rain,Light Rain,0,2013-01-10 09:23:00
1:53 AM,35.1,32.0,89,30.01,9.0,East,3.5,-,0.00,,Mostly Cloudy,80,2013-01-10 09:53:00
2:08 AM,35.6,33.8,93,30.01,9.0,Calm,Calm,-,N/A,,Mostly Cloudy,0,2013-01-10 10:08:00
2:35 AM,35.6,33.8,93,30.02,10.0,Calm,Calm,-,N/A,,Mostly Cloudy,0,2013-01-10 10:35:00
2:53 AM,36.0,33.1,89,30.02,10.0,Calm,Calm,-,N/A,,Overcast,0,2013-01-10 10:53:00
3:39 AM,35.6,33.8,93,30.02,10.0,Calm,Calm,-,N/A,,Overcast,0,2013-01-10 11:39:00
3:53 AM,36.0,33.1,89,30.02,10.0,Calm,Calm,-,N/A,,Overcast,0,2013-01-10 11:53:00
4:53 AM,36.0,33.1,89,30.02,10.0,SSE,3.5,-,N/A,,Overcast,150,2013-01-10 12:53:00
5:53 AM,36.0,33.1,89,30.02,10.0,SE,3.5,-,N/A,,Overcast,130,2013-01-10 13:53:00
6:53 AM,37.0,33.1,86,30.04,10.0,SSE,3.5,-,0.01,Rain,Light Rain,150,2013-01-10 14:53:00
7:39 AM,35.6,33.8,93,30.05,8.0,Calm,Calm,-,0.03,Rain,Light Rain,0,2013-01-10 15:39:00
7:53 AM,36.0,33.1,89,30.06,7.0,South,3.5,-,0.05,Rain,Light Rain,170,2013-01-10 15:53:00
8:08 AM,35.6,32.0,87,30.06,6.0,Calm,Calm,-,0.03,Rain,Rain,0,2013-01-10 16:08:00
8:53 AM,35.1,32.0,89,30.08,10.0,Calm,Calm,-,0.04,,Overcast,0,2013-01-10 16:53:00
9:34 AM,35.6,33.8,93,30.09,10.0,Calm,Calm,-,N/A,,Overcast,0,2013-01-10 17:34:00
9:48 AM,35.6,33.8,93,30.09,10.0,Calm,Calm,-,N/A,,Overcast,0,2013-01-10 17:48:00
9:53 AM,36.0,33.1,89,30.09,10.0,Calm,Calm,-,N/A,,Overcast,0,2013-01-10 17:53:00
10:53 AM,37.0,34.0,89,30.09,9.0,Calm,Calm,-,0.00,Rain,Light Rain,0,2013-01-10 18:53:00
11:53 AM,37.9,35.1,89,30.08,9.0,Calm,Calm,-,0.00,,Overcast,0,2013-01-10 19:53:00
12:35 PM,37.4,33.8,87,30.07,10.0,West,4.6,-,N/A,,Overcast,260,2013-01-10 20:35:00
12:53 PM,37.9,34.0,86,30.07,10.0,West,4.6,-,N/A,,Overcast,280,2013-01-10 20:53:00
1:24 PM,37.4,33.8,87,30.08,10.0,Calm,Calm,-,N/A,,Overcast,0,2013-01-10 21:24:00
1:53 PM,39.0,33.1,79,30.09,10.0,Calm,Calm,-,N/A,,Overcast,0,2013-01-10 21:53:00
2:21 PM,39.2,33.8,81,30.09,10.0,Calm,Calm,-,N/A,,Overcast,0,2013-01-10 22:21:00
2:53 PM,39.0,34.0,82,30.10,10.0,Calm,Calm,-,N/A,,Overcast,0,2013-01-10 22:53:00
3:53 PM,39.0,33.1,79,30.11,10.0,NW,5.8,-,N/A,,Overcast,310,2013-01-10 23:53:00
4:42 PM,39.2,33.8,81,30.10,10.0,Calm,Calm,-,N/A,,Overcast,0,2013-01-11 00:42:00
4:53 PM,39.0,34.0,82,30.11,10.0,Calm,Calm,-,N/A,,Overcast,0,2013-01-11 00:53:00
5:53 PM,37.9,34.0,86,30.10,10.0,Calm,Calm,-,0.00,,Overcast,0,2013-01-11 01:53:00
6:23 PM,37.4,35.6,93,30.10,10.0,Calm,Calm,-,N/A,,Mostly Cloudy,0,2013-01-11 02:23:00
6:53 PM,37.9,35.1,89,30.10,10.0,Calm,Calm,-,N/A,,Overcast,0,2013-01-11 02:53:00
7:23 PM,37.4,33.8,87,30.10,10.0,ESE,3.5,-,N/A,,Overcast,120,2013-01-11 03:23:00
8:00 PM,37.4,35.6,93,30.10,3.0,Calm,Calm,-,0.02,Rain,Rain,0,2013-01-11 04:00:00
8:08 PM,37.4,35.6,93,30.11,2.5,Calm,Calm,-,0.05,Rain,Rain,0,2013-01-11 04:08:00
8:16 PM,35.6,33.8,93,30.10,4.0,West,3.5,-,0.06,Rain,Light Rain,280,2013-01-11 04:16:00
8:40 PM,35.6,33.8,93,30.10,10.0,Calm,Calm,-,0.07,,Mostly Cloudy,0,2013-01-11 04:40:00
8:53 PM,35.1,33.1,92,30.10,10.0,Calm,Calm,-,0.07,,Mostly Cloudy,0,2013-01-11 04:53:00
9:53 PM,34.0,32.0,92,30.11,9.0,Calm,Calm,-,0.00,Rain,Light Rain,0,2013-01-11 05:53:00
10:00 PM,35.6,33.8,93,30.11,9.0,Calm,Calm,-,0.00,Rain,Light Rain,0,2013-01-11 06:00:00
10:31 PM,35.6,33.8,93,30.11,9.0,Calm,Calm,-,0.00,,Mostly Cloudy,0,2013-01-11 06:31:00
10:53 PM,34.0,32.0,92,30.11,5.0,Calm,Calm,-,0.00,,Mostly Cloudy,0,2013-01-11 06:53:00
11:53 PM,34.0,33.1,96,30.12,7.0,Calm,Calm,-,N/A,,Overcast,0,2013-01-11 07:53:00